Location: Freistadt
(48.5112°N, 14.5013°E)
Time: 16:20:19
(UTC+02:00)

O/OREOS (USA 219) - Visible Passes

Search period start: 01 April 2023 00:00
Search period end: 11 April 2023 00:00
Orbit: 621 x 646 km, 72.0° (Epoch: 22 May)

Date Brightness Start Highest point End Pass type
(mag) Time Alt. Az. Time Alt. Az. Time Alt. Az.
01 Apr ? 04:16:19 10° ESE 04:18:08 12° E 04:19:58 10° ENE visible
01 Apr ? 05:52:15 10° SSW 05:56:51 86° WNW 06:01:26 10° NNE visible
02 Apr ? 04:36:05 10° SSE 04:39:48 25° ESE 04:43:32 10° NE visible
03 Apr ? 04:57:23 11° S 05:01:39 51° ESE 05:06:05 10° NE visible
04 Apr ? 03:42:38 10° SE 03:44:54 14° E 03:47:09 10° ENE visible
04 Apr ? 05:19:33 13° SSW 05:23:39 79° WNW 05:28:15 10° NNE visible
05 Apr ? 04:04:10 18° SSE 04:06:35 27° ESE 04:10:26 10° NE visible
05 Apr ? 05:41:38 11° SW 05:45:51 40° NW 05:50:09 10° NNE visible
06 Apr ? 04:26:10 27° S 04:28:26 56° ESE 04:32:55 10° NNE visible
07 Apr ? 03:10:39 14° ESE 03:11:39 15° E 03:14:14 10° ENE visible
07 Apr ? 04:48:06 28° SW 04:50:29 71° WNW 04:55:03 10° NNE visible
08 Apr ? 03:32:32 28° SE 03:33:21 30° ESE 03:37:20 10° NE visible
08 Apr ? 05:10:00 19° WSW 05:12:41 36° NW 05:16:54 10° NNE visible
09 Apr ? 03:54:22 51° SSE 03:55:15 63° ESE 03:59:45 10° NNE visible
09 Apr ? 05:31:49 11° W 05:35:04 21° NW 05:38:31 10° N visible
10 Apr ? 02:38:42 17° E 02:38:42 17° E 02:41:15 10° ENE visible
10 Apr ? 04:16:09 46° WSW 04:17:18 65° WNW 04:21:50 10° NNE visible
